CAPE
1251 1259 1237 1137 1105 1031 1056 1150 1244 1270 1336 1252 1289 1104 1308 995 842 707 500 425 605 880 1088 1023 876 834 737 703 641 592 495 467 462 348 297 335 340 485 421 272 370 502
1204 1245 1273 1281 1175 1170 1327 1314 1291 1471 1435 1447 1326 1190 1085 1011 829 555 429 395 470 512 605 745 937 851 786 581 685 422 457 460 406 396 327 346 326 358 498 526 392 454
767 915 1031 1191 1232 1167 1235 1171 1146 1227 1124 941 965 1145 954 826 792 529 464 377 367 426 492 679 800 855 550 548 452 452 411 417 402 264 266 335 277 369 331 352 392 392
596 668 761 862 1050 1100 1109 1079 1013 1038 957 766 702 766 686 664 551 591 416 532 544 569 594 562 730 629 610 531 421 398 433 415 386 348 310 323 171 214 304 382 412 398
427 592 661 744 871 1049 1146 1075 1187 1242 1093 919 832 846 698 674 573 439 394 429 498 418 467 556 683 704 553 411 522 363 193 341 358 281 324 272 202 280 354 351 367 372
362 346 551 672 770 884 1007 1038 986 953 1000 899 751 738 701 525 445 414 437 443 415 449 386 558 639 557 630 650 438 222 267 229 224 205 170 182 203 205 456 383 427 439
219 354 477 552 715 845 936 940 910 902 973 936 862 769 440 382 371 436 386 311 231 395 450 494 546 590 530 480 341 282 185 208 254 200 173 151 248 320 404 342 418 482
169 214 338 557 806 895 770 653 822 798 840 807 710 675 679 708 492 330 236 276 462 438 520 615 574 566 510 473 376 367 388 407 166 191 358 210 227 291 421 258 341 458
118 174 374 685 804 781 830 890 753 687 809 679 646 673 689 465 486 477 476 354 385 437 359 402 425 551 529 537 454 391 514 362 346 424 331 396 280 219 366 332 372 395
63 207 505 594 593 636 699 667 686 743 776 577 632 520 443 397 427 440 431 449 352 385 516 497 371 583 580 547 561 554 486 428 418 350 354 250 290 223 288 361 236 238
50 128 267 251 447 511 546 556 586 554 595 471 560 423 381 522 523 348 366 466 434 463 429 509 508 504 621 562 524 488 392 448 429 340 361 360 402 398 198 274 283 375
18 3 2 25 9 36 108 207 288 264 371 369 347 328 302 542 553 429 408 462 394 452 422 395 624 608 525 538 497 491 442 498 552 495 421 343 503 368 448 403 484 505
10 10 3 1 0 2 8 69 11 79 186 185 251 314 309 291 322 347 316 391 341 353 381 541 597 489 424 434 431 395 395 499 487 381 425 308 196 316 449 410 277 344
10 6 3 0 1 2 2 2 2 2 1 3 6 86 291 313 314 256 174 243 310 327 367 466 517 416 421 396 307 344 317 350 551 502 400 397 292 323 409 374 222 185
6 3 2 1 0 0 2 2 2 1 1 1 1 3 10 24 252 135 129 128 118 159 205 222 363 376 306 198 120 122 106 179 213 236 282 248 315 614 367 356 525 494
2 1 1 1 1 0 1 1 0 1 1 0 1 1 2 4 4 22 69 107 180 146 200 216 168 158 168 136 60 45 28 56 348 254 287 320 184 121 373 383 206 202
0 0 0 1 0 2 0 0 0 1 1 0 0 0 0 1 1 143 115 114 104 112 218 219 143 83 40 86 85 0 15 27 645 531 212 38 120 156 106 318 259 249
1 0 0 0 1 0 1 0 0 1 1 1 1 1 1 1 1 4 61 62 86 81 94 61 33 47 31 35 48 37 25 71 40 40 113 206 176 99 69 264 172 352
1 0 0 0 0 1 0 0 0 0 1 1 1 1 1 1 1 2 2 24 29 18 20 18 24 30 27 41 32 35 37 30 34 48 46 1 0 0 40 121 151 196
0 1 1 1 0 0 0 0 1 1 1 1 1 1 1 1 2 1 1 1 8 4 4 6 27 39 37 22 30 38 48 69 89 82 75 91 68 82 90 26 113 102
0 1 1 0 0 0 0 1 1 1 1 1 1 2 1 1 2 1 1 1 2 3 1 4 43 12 14 18 24 30 39 46 62 87 84 81 90 15 109 1 155 179
0 1 0 0 0 1 2 0 0 0 0 0 2 1 0 2 0 0 0 0 0 0 0 0 8 3 11 16 20 17 15 22 27 55 119 126 128 131 152 110 51 100
0 1 0 0 0 0 0 0 0 0 0 0 4 0 0 0 1 0 0 0 0 0 0 4 1 2 11 25 25 16 18 21 33 46 65 60 62 103 122 124 103 147
0 0 0 0 0 1 0 0 0 0 0 0 0 0 0 0 0 0 1 2 0 3 0 1 1 1 13 15 30 19 13 0 2 3 3 0 3 24 21 32 78 122
0 0 0 0 0 0 0 0 0 0 0 0 0 0 0 0 0 0 0 1 5 8 0 0 2 0 0 2 13 16 21 0 0 0 0 1 1 5 5 7 16 2
0 0 0 0 0 0 0 0 0 0 0 0 0 0 0 0 0 0 0 0 0 1 6 3 0 0 0 0 0 0 0 0 1 0 1 1 1 1 0 0 2 11
Wind_Speed
19 20 22 24 26 28 29 30 29 28 29 29 32 32 31 33 33 31 26 22 21 21 20 21 21 21 20 22 24 25 23 23 26 25 24 24 24 24 22 22 20 23
19 20 22 24 27 30 31 30 29 29 29 29 33 33 31 36 36 32 27 20 22 24 22 20 18 21 18 20 23 24 24 25 24 24 23 22 21 21 22 21 20 24
20 20 21 23 26 26 27 28 28 31 31 30 31 32 32 34 31 30 26 21 20 22 18 18 18 18 14 20 21 23 22 23 25 25 23 24 25 24 26 25 24 22
20 21 22 24 26 26 27 27 28 31 32 32 33 34 32 28 27 25 24 18 16 17 16 15 13 14 17 20 22 23 23 22 24 28 27 29 25 25 27 28 25 24
21 23 24 25 26 26 27 27 28 30 31 32 33 35 32 26 22 22 22 15 11 12 16 12 13 18 17 18 23 23 22 21 24 29 31 28 26 27 28 28 25 23
22 22 23 24 25 24 24 26 28 28 29 31 33 33 29 23 18 17 19 15 10 11 10 13 15 16 18 22 23 21 21 21 26 27 30 28 28 28 30 28 24 22
22 23 23 24 23 23 23 25 28 28 29 32 35 33 25 19 14 13 14 12 9 9 10 11 11 16 18 22 21 22 20 21 24 25 28 31 32 32 30 26 21 18
22 23 23 23 23 24 24 26 26 27 29 30 32 30 22 14 12 12 11 12 15 13 14 14 16 16 18 18 20 21 21 21 23 22 24 26 26 28 26 21 16 14
23 23 22 22 23 24 24 25 26 26 28 29 29 27 21 14 13 12 13 16 19 19 16 10 13 14 16 18 19 20 20 22 24 22 22 21 20 20 17 17 17 14
nan 23 23 22 23 23 23 24 25 26 27 27 28 27 21 15 13 15 16 17 20 18 14 16 14 16 18 19 17 19 19 22 22 23 23 20 20 19 16 15 11 8
nan 24 23 21 22 24 22 23 24 24 26 26 26 25 21 16 15 16 17 17 18 21 17 15 15 15 17 19 20 20 18 20 20 21 22 21 23 19 15 11 10 11
nan nan nan nan nan nan 22 23 24 24 25 26 25 24 21 18 16 16 16 18 21 23 19 14 15 16 20 18 18 19 18 17 18 18 20 21 22 22 22 22 21 20
nan nan nan nan nan nan nan nan nan nan 23 24 24 24 22 20 18 18 19 21 22 22 19 18 21 21 18 16 16 20 19 17 17 17 18 21 20 19 20 20 22 23
nan nan nan nan nan nan nan nan nan nan nan nan nan nan 23 23 23 21 19 21 21 23 23 22 22 23 19 18 18 18 18 18 17 17 17 18 18 18 19 22 17 17
nan nan nan nan nan nan nan nan nan nan nan nan nan nan nan nan 23 22 19 20 22 25 25 22 22 22 20 17 16 18 18 17 17 18 19 19 20 21 24 22 20 21
nan nan nan nan nan nan nan nan nan nan nan nan nan nan nan nan nan nan nan 20 20 22 23 23 21 21 21 22 nan nan nan nan 18 18 19 26 28 23 21 22 23 23
nan nan nan nan nan nan nan nan nan nan nan nan nan nan nan nan nan 24 25 23 20 19 19 20 21 nan nan nan nan nan nan nan 18 21 27 nan 26 18 20 22 23 22
nan nan nan nan nan nan nan nan nan nan nan nan nan nan nan nan nan nan nan nan nan nan nan nan nan nan nan nan nan nan nan nan nan nan 31 32 29 nan nan 23 23 21
nan nan nan nan nan nan nan nan nan nan nan nan nan nan nan nan nan nan nan nan nan nan nan nan nan nan nan nan nan nan nan nan nan nan nan nan nan nan nan 24 25 26
nan nan nan nan nan nan nan nan nan nan nan nan nan nan nan nan nan nan nan nan nan nan nan nan nan nan nan nan nan nan nan nan nan nan nan nan nan nan nan nan 30 32
nan nan nan nan nan nan nan nan nan nan nan nan nan nan nan nan nan nan nan nan nan nan nan nan nan nan nan nan nan nan nan nan nan nan nan nan nan nan 35 nan 33 35
nan nan nan nan nan nan nan nan nan nan nan nan nan nan nan nan nan nan nan nan nan nan nan nan nan nan nan nan nan nan nan nan nan nan 37 41 42 41 41 37 nan 35
nan nan nan nan nan nan nan nan nan nan nan nan nan nan nan nan nan nan nan nan nan nan nan nan nan nan nan nan nan nan nan nan nan nan nan nan nan 39 42 42 41 37
nan nan nan nan nan nan nan nan nan nan nan nan nan nan nan nan nan nan nan nan nan nan nan nan nan nan nan nan nan nan nan nan nan nan nan nan nan nan nan nan nan 47
nan nan nan nan nan nan nan nan nan nan nan nan nan nan nan nan nan nan nan nan nan nan nan nan nan nan nan nan nan nan nan nan nan nan nan nan nan nan nan nan nan nan
nan nan nan nan nan nan nan nan nan nan nan nan nan nan nan nan nan nan nan nan nan nan nan nan nan nan nan nan nan nan nan nan nan nan nan nan nan nan nan nan nan nan
Wind_Direction
303 306 310 314 316 317 318 318 313 310 309 307 304 305 304 301 296 292 287 283 293 284 265 272 274 271 272 273 281 289 291 288 278 273 285 280 256 250 259 264 253 252
300 305 311 314 317 318 318 317 316 313 311 309 309 310 308 304 300 293 289 283 282 277 257 247 262 262 264 272 277 284 286 283 277 265 276 284 263 254 260 260 255 250
302 305 309 313 312 314 316 316 313 310 312 311 310 310 306 306 299 291 277 272 277 283 274 270 263 254 265 272 276 283 285 284 280 273 270 274 257 252 251 254 253 250
304 308 311 311 311 315 316 314 311 310 313 313 311 311 307 302 297 283 272 271 274 272 260 252 257 269 269 269 272 270 275 277 277 274 268 261 254 243 250 254 250 243
309 310 310 310 313 318 318 314 312 311 314 316 316 316 312 302 294 279 266 260 264 254 244 235 254 256 261 268 268 272 276 274 267 262 264 265 254 246 247 250 243 237
305 305 306 309 314 317 317 315 311 313 317 320 324 324 316 306 296 281 269 262 234 222 232 237 235 253 265 269 269 270 269 262 259 262 265 263 259 253 252 247 234 225
301 305 307 311 314 315 318 315 314 320 324 330 334 329 320 309 295 275 259 254 233 227 238 264 267 266 262 265 271 272 265 259 259 259 261 254 252 256 254 242 222 217
295 302 308 310 312 315 316 315 319 323 329 335 338 336 331 311 291 275 267 264 262 262 249 251 261 260 266 266 270 263 256 257 260 264 267 266 252 247 245 235 224 224
296 303 307 308 309 314 314 315 320 328 332 337 342 341 332 309 278 266 270 266 262 265 257 260 255 265 267 270 270 268 258 253 253 260 269 269 257 245 236 226 222 220
nan 302 302 301 304 312 315 319 323 331 332 336 341 344 336 323 294 265 261 265 262 258 258 254 259 252 273 271 271 263 254 254 256 258 262 262 257 252 241 235 232 222
nan 290 290 292 300 307 311 316 319 326 329 333 337 339 339 328 295 270 260 256 262 264 254 239 253 264 257 261 261 258 252 251 253 257 257 252 251 249 248 240 242 232
nan nan nan nan nan nan 307 313 318 322 325 327 330 333 335 331 307 278 265 259 260 270 285 267 242 246 251 247 254 257 247 248 250 250 249 244 244 238 232 229 229 229
nan nan nan nan nan nan nan nan nan nan 321 322 327 326 326 329 318 290 273 272 271 270 273 265 248 239 234 235 242 245 242 243 243 243 242 240 238 237 232 230 231 233
nan nan nan nan nan nan nan nan nan nan nan nan nan nan 324 328 330 319 300 278 271 273 264 253 245 241 237 232 225 236 244 236 229 230 238 240 235 233 232 238 239 234
nan nan nan nan nan nan nan nan nan nan nan nan nan nan nan nan 322 322 316 297 278 270 266 257 249 249 248 237 234 222 222 228 226 226 224 225 225 231 235 243 249 244
nan nan nan nan nan nan nan nan nan nan nan nan nan nan nan nan nan nan nan 297 283 275 268 258 254 250 232 223 nan nan nan nan 230 230 228 236 234 230 238 247 252 249
nan nan nan nan nan nan nan nan nan nan nan nan nan nan nan nan nan 312 311 307 300 295 278 266 262 nan nan nan nan nan nan nan 242 246 247 nan 244 236 244 245 248 247
nan nan nan nan nan nan nan nan nan nan nan nan nan nan nan nan nan nan nan nan nan nan nan nan nan nan nan nan nan nan nan nan nan nan 242 231 227 nan nan 237 241 245
nan nan nan nan nan nan nan nan nan nan nan nan nan nan nan nan nan nan nan nan nan nan nan nan nan nan nan nan nan nan nan nan nan nan nan nan nan nan nan 237 244 243
nan nan nan nan nan nan nan nan nan nan nan nan nan nan nan nan nan nan nan nan nan nan nan nan nan nan nan nan nan nan nan nan nan nan nan nan nan nan nan nan 242 251
nan nan nan nan nan nan nan nan nan nan nan nan nan nan nan nan nan nan nan nan nan nan nan nan nan nan nan nan nan nan nan nan nan nan nan nan nan nan 242 nan 229 242
nan nan nan nan nan nan nan nan nan nan nan nan nan nan nan nan nan nan nan nan nan nan nan nan nan nan nan nan nan nan nan nan nan nan 257 254 248 246 246 238 nan 232
nan nan nan nan nan nan nan nan nan nan nan nan nan nan nan nan nan nan nan nan nan nan nan nan nan nan nan nan nan nan nan nan nan nan nan nan nan 254 253 245 236 232
nan nan nan nan nan nan nan nan nan nan nan nan nan nan nan nan nan nan nan nan nan nan nan nan nan nan nan nan nan nan nan nan nan nan nan nan nan nan nan nan nan 233
nan nan nan nan nan nan nan nan nan nan nan nan nan nan nan nan nan nan nan nan nan nan nan nan nan nan nan nan nan nan nan nan nan nan nan nan nan nan nan nan nan nan
nan nan nan nan nan nan nan nan nan nan nan nan nan nan nan nan nan nan nan nan nan nan nan nan nan nan nan nan nan nan nan nan nan nan nan nan nan nan nan nan nan nan